Home   Weather   Elbląg   Past weeks

Flag for Poland Past Weather in Elbląg, Poland — Yesterday and Last 2 Weeks

42 °F

Light rain. Low clouds.

Feels Like: 37 °F
Forecast: 43 / 48 °F
Wind: 7 mph from Southeast

Location: Hel

Current Time: Oct 21, 2016 at 10:15:31 PM

Latest Report: Oct 21, 2016 at 9:00 PM

Visibility: 2 mi

Pressure: 30.06 "Hg

Humidity: 96%

Dew Point: 41 °F

Location of ElblągLocation

Past Weather in Elbląg — Graph


Elbląg Temperature Yesterday

Maximum temperature yesterday: 49 °F (at 1:00 PM)
Minimum temperature yesterday: 45 °F (at 11:00 PM)
Average temperature yesterday: 47 °F

High & Low Weather Summary for the Past Weeks

High51 °F (Oct 10, 1:00 PM)98% (Oct 10, 8:00 AM)30.53 "Hg (Oct 10, 8:00 AM)
Low38 °F (Oct 15, 9:00 PM)64% (Oct 17, 2:00 PM)30.02 "Hg (Oct 8, 4:00 AM)
Average46 °F86%30.22 "Hg
* Reported Oct 6 9:00 PM — Oct 21 9:00 PM, Elbląg, Weather by CustomWeather, © 2016

Note: Actual official high and low records may vary slightly from our data, if they occured in-between our weather recording intervals... More about our weather records


Elbląg Weather History for the Previous 24 Hours

Scroll right to see more
Time TempWeatherWind HumidityBarometerVisibility
9:00 PM
Fri, Oct 21
42 °FLight rain. Low clouds.7 mph96%30.06 "Hg2 mi
8:00 PM42 °FLight rain. Overcast.7 mph91%30.07 "Hg4 mi
7:00 PM43 °FFog.6 mph92%30.07 "Hg3 mi
6:00 PM43 °FFog.6 mph92%30.07 "Hg3 mi
5:00 PM43 °FFog.6 mph92%30.08 "Hg2 mi
4:00 PM44 °FFog.5 mph92%30.07 "Hg3 mi
3:00 PM44 °FFog.5 mph94%30.06 "Hg2 mi
2:00 PM43 °FFog.6 mph94%30.07 "Hg2 mi
1:00 PM43 °FFog.6 mph95%30.07 "Hg2 mi
12:00 PM42 °FFog.6 mph96%30.07 "Hg2 mi
11:00 AM42 °FFog.7 mph96%30.07 "Hg2 mi
10:00 AM42 °FOvercast.7 mph97%30.06 "Hg2 mi
9:00 AM42 °FFog.8 mph96%30.06 "Hg2 mi
8:00 AM42 °FLow clouds.7 mph96%30.06 "Hg2 mi
7:00 AM42 °FLight rain. Low clouds.8 mph97%30.04 "Hg2 mi
6:00 AM42 °FLight rain. Low clouds.8 mph97%30.04 "Hg2 mi
5:00 AM42 °FLight rain. Low clouds.9 mph96%30.05 "Hg1 mi
4:00 AM43 °FLight rain. Low clouds.8 mph97%30.05 "Hg2 mi
3:00 AM43 °FLight rain. Low clouds.8 mph97%30.06 "Hg2 mi
2:00 AM44 °FLight rain. Overcast.7 mph97%30.07 "Hg2 mi
1:00 AM44 °FLight rain. Overcast.7 mph97%30.08 "Hg1 mi
12:00 AM45 °FRain. Overcast.7 mph97%30.09 "Hg1 mi
11:00 PM
Thu, Oct 20
45 °FRain. Overcast.7 mph97%30.09 "Hg2 mi
10:00 PM45 °FRain. Overcast.7 mph97%30.09 "Hg1 mi
Weather by CustomWeather, © 2016

See weather overviewHow to use our weather pages